| time (UTC) | temp F | wind direction | speed knots | gust knots | rain 1hr in | rain 24hr in | rain mn in | humidity % | barometer mb |
| 20260901213003 | 81 | 257 | 4.3 | 7.8 | 0.00 | 0.00 | 0.00 | 32 | 1023.4 |
| 20260901212559 | 82 | 271 | 0.0 | 10.4 | 0.00 | 0.00 | 0.00 | 33 | 1023.4 |
| 20260901212001 | 82 | 259 | 5.2 | 11.3 | 0.00 | 0.00 | 0.00 | 34 | 1023.5 |
| 20260901211558 | 82 | 283 | 5.2 | 11.3 | 0.00 | 0.00 | 0.00 | 34 | 1023.6 |
| 20260901211050 | 82 | 281 | 2.6 | 5.2 | 0.00 | 0.00 | 0.00 | 34 | 1023.6 |
| 20260901210555 | 82 | 159 | 4.3 | 8.7 | 0.00 | 0.00 | 0.00 | 33 | 1023.8 |
| 20260901210108 | 82 | 219 | 2.6 | 8.7 | 0.00 | 0.00 | 0.00 | 33 | 1023.8 |
| 20260901205508 | 82 | 258 | 1.7 | 8.7 | 0.00 | 0.00 | 0.00 | 31 | 1023.9 |
| 20260901205103 | 82 | 242 | 2.6 | 7.0 | 0.00 | 0.00 | 0.00 | 31 | 1023.9 |
| 20260901204502 | 81 | 209 | 2.6 | 7.0 | 0.00 | 0.00 | 0.00 | 32 | 1024.0 |
| 20260901204100 | 80 | 313 | 0.9 | 7.0 | 0.00 | 0.00 | 0.00 | 34 | 1024.0 |
| 20260901203553 | 80 | 252 | 2.6 | 7.0 | 0.00 | 0.00 | 0.00 | 35 | 1024.0 |
| 20260901203119 | 80 | 329 | 2.6 | 7.0 | 0.00 | 0.00 | 0.00 | 35 | 1024.2 |
| 20260901202550 | 80 | 267 | 0.9 | 7.0 | 0.00 | 0.00 | 0.00 | 35 | 1024.3 |
| 20260901202044 | 80 | 286 | 1.7 | 7.0 | 0.00 | 0.00 | 0.00 | 36 | 1024.3 |
| 20260901201556 | 80 | 317 | 4.3 | 7.0 | 0.00 | 0.00 | 0.00 | 35 | 1024.4 |
| 20260901201042 | 80 | 194 | 1.7 | 9.6 | 0.00 | 0.00 | 0.00 | 37 | 1024.5 |
| 20260901200550 | 80 | 269 | 3.5 | 9.6 | 0.00 | 0.00 | 0.00 | 37 | 1024.6 |
| 20260901200057 | 80 | 213 | 2.6 | 8.7 | 0.00 | 0.00 | 0.00 | 38 | 1024.5 |
| 20260901195605 | 80 | 277 | 0.0 | 3.5 | 0.00 | 0.00 | 0.00 | 39 | 1024.6 |
| 20260901195058 | 79 | 254 | 1.7 | 4.3 | 0.00 | 0.00 | 0.00 | 38 | 1024.7 |
| 20260901194607 | 79 | 44 | 0.9 | 6.1 | 0.00 | 0.00 | 0.00 | 38 | 1024.8 |
| 20260901194057 | 79 | 307 | 0.9 | 6.1 | 0.00 | 0.00 | 0.00 | 37 | 1024.8 |
| 20260901193549 | 79 | 249 | 1.7 | 7.0 | 0.00 | 0.00 | 0.00 | 38 | 1024.8 |
| 20260901193102 | 79 | 223 | 1.7 | 7.0 | 0.00 | 0.00 | 0.00 | 38 | 1024.8 |
| 20260901192606 | 79 | 225 | 1.7 | 5.2 | 0.00 | 0.00 | 0.00 | 40 | 1024.8 |
| 20260901192008 | 78 | 225 | 1.7 | 7.0 | 0.00 | 0.00 | 0.00 | 42 | 1025.0 |
| 20260901191516 | 77 | 279 | 2.6 | 4.3 | 0.00 | 0.00 | 0.00 | 43 | 1025.0 |
| 20260901191024 | 77 | 288 | 1.7 | 5.2 | 0.00 | 0.00 | 0.00 | 42 | 1025.1 |
| 20260901190532 | 77 | 248 | 2.6 | 6.1 | 0.00 | 0.00 | 0.00 | 42 | 1025.1 |
| 20260901190039 | 77 | 289 | 0.9 | 7.8 | 0.00 | 0.00 | 0.00 | 44 | 1025.0 |
| 20260901185547 | 77 | 288 | 2.6 | 7.8 | 0.00 | 0.04 | 0.00 | 43 | 1025.1 |
| 20260901185054 | 77 | 204 | 1.7 | 7.0 | 0.00 | 0.04 | 0.00 | 46 | 1025.2 |
| 20260901184603 | 77 | 298 | 3.5 | 7.0 | 0.00 | 0.04 | 0.00 | 43 | 1025.2 |
| 20260901184003 | 77 | 333 | 0.9 | 7.8 | 0.00 | 0.04 | 0.00 | 44 | 1025.3 |
| 20260901183559 | 77 | 308 | 0.9 | 6.1 | 0.00 | 0.04 | 0.00 | 45 | 1025.4 |
| 20260901183000 | 76 | 252 | 0.9 | 3.5 | 0.00 | 0.04 | 0.00 | 47 | 1025.5 |
| 20260901182600 | 77 | 347 | 0.9 | 7.0 | 0.00 | 0.04 | 0.00 | 47 | 1025.5 |
| 20260901182003 | 77 | 236 | 2.6 | 7.0 | 0.00 | 0.04 | 0.00 | 48 | 1025.4 |
| 20260901181559 | 76 | 210 | 0.9 | 7.0 | 0.00 | 0.04 | 0.00 | 46 | 1025.4 |
| 20260901181003 | 76 | 282 | 3.5 | 6.1 | 0.00 | 0.04 | 0.00 | 47 | 1025.5 |
| 20260901180513 | 76 | 302 | 0.9 | 4.3 | 0.00 | 0.04 | 0.00 | 45 | 1025.5 |
| 20260901180039 | 76 | 155 | 1.7 | 7.0 | 0.00 | 0.04 | 0.00 | 46 | 1025.4 |
| 20260901175545 | 75 | 247 | 2.6 | 7.0 | 0.00 | 0.05 | 0.00 | 45 | 1025.5 |
| 20260901175053 | 75 | 355 | 1.7 | 7.0 | 0.00 | 0.05 | 0.00 | 46 | 1025.4 |
| 20260901174604 | 75 | 291 | 3.5 | 7.0 | 0.00 | 0.05 | 0.00 | 45 | 1025.5 |
| 20260901174006 | 75 | 254 | 1.7 | 5.2 | 0.00 | 0.05 | 0.00 | 47 | 1025.4 |
| 20260901173559 | 75 | 34 | 0.9 | 3.5 | 0.00 | 0.05 | 0.00 | 46 | 1025.5 |
| 20260901173001 | 76 | 261 | 1.7 | 3.5 | 0.00 | 0.05 | 0.00 | 45 | 1025.6 |
| 20260901172559 | 76 | 190 | 0.9 | 5.2 | 0.00 | 0.05 | 0.00 | 46 | 1025.5 |
| 20260901172052 | 75 | 241 | 1.7 | 5.2 | 0.00 | 0.05 | 0.00 | 49 | 1025.5 |
| 20260901171547 | 75 | 242 | 0.9 | 3.5 | 0.00 | 0.05 | 0.00 | 48 | 1025.5 |
| 20260901171052 | 75 | 107 | 1.7 | 3.5 | 0.00 | 0.05 | 0.00 | 48 | 1025.6 |
| 20260901170602 | 74 | 162 | 1.7 | 4.3 | 0.00 | 0.05 | 0.00 | 50 | 1025.5 |
| 20260901170002 | 74 | 192 | 0.9 | 4.3 | 0.00 | 0.05 | 0.00 | 53 | 1025.5 |
| 20260901165601 | 73 | 123 | 0.9 | 3.5 | 0.00 | 0.05 | 0.00 | 51 | 1025.5 |
| 20260901165002 | 73 | 116 | 0.9 | 6.1 | 0.00 | 0.05 | 0.00 | 49 | 1025.5 |
| 20260901164604 | 72 | 128 | 1.7 | 6.1 | 0.00 | 0.05 | 0.00 | 51 | 1025.5 |
| 20260901164002 | 72 | 107 | 0.9 | 3.5 | 0.00 | 0.05 | 0.00 | 51 | 1025.6 |
| 20260901163559 | 71 | 159 | 0.9 | 5.2 | 0.00 | 0.05 | 0.00 | 53 | 1025.6 |
| 20260901163049 | 71 | 24 | 2.6 | 5.2 | 0.00 | 0.05 | 0.00 | 54 | 1025.6 |
| 20260901162557 | 71 | 12 | 1.7 | 5.2 | 0.00 | 0.05 | 0.00 | 54 | 1025.5 |
| 20260901162052 | 71 | 76 | 1.7 | 6.1 | 0.00 | 0.05 | 0.00 | 55 | 1025.6 |
| 20260901161559 | 70 | 84 | 0.0 | 6.1 | 0.00 | 0.05 | 0.00 | 56 | 1025.4 |
| 20260901161050 | 69 | 88 | 2.6 | 5.2 | 0.00 | 0.05 | 0.00 | 60 | 1025.4 |
| 20260901160540 | 69 | 104 | 0.9 | 4.3 | 0.00 | 0.05 | 0.00 | 59 | 1025.5 |
| 20260901160055 | 68 | 65 | 1.7 | 4.3 | 0.00 | 0.05 | 0.00 | 57 | 1025.5 |
| 20260901155557 | 68 | 54 | 1.7 | 5.2 | 0.00 | 0.05 | 0.00 | 59 | 1025.5 |
| 20260901155105 | 68 | 40 | 2.6 | 5.2 | 0.00 | 0.05 | 0.00 | 59 | 1025.6 |
| 20260901154559 | 67 | 105 | 1.7 | 7.0 | 0.00 | 0.05 | 0.00 | 59 | 1025.7 |
| 20260901154102 | 67 | 50 | 2.6 | 7.0 | 0.00 | 0.05 | 0.00 | 58 | 1025.7 |
| 20260901153554 | 67 | 90 | 0.9 | 6.1 | 0.00 | 0.05 | 0.00 | 61 | 1025.7 |
| 20260901153119 | 67 | 77 | 1.7 | 5.2 | 0.00 | 0.05 | 0.00 | 60 | 1025.7 |
| 20260901152555 | 66 | 126 | 2.6 | 7.0 | 0.00 | 0.05 | 0.00 | 63 | 1025.6 |
| 20260901152050 | 66 | 118 | 3.5 | 7.0 | 0.00 | 0.05 | 0.00 | 63 | 1025.6 |
| 20260901151538 | 65 | 103 | 0.0 | 7.0 | 0.00 | 0.05 | 0.00 | 67 | 1025.6 |
| 20260901151046 | 65 | 130 | 4.3 | 7.0 | 0.00 | 0.05 | 0.00 | 67 | 1025.5 |
| 20260901150538 | 65 | 119 | 4.3 | 7.0 | 0.00 | 0.05 | 0.00 | 67 | 1025.4 |
| 20260901150047 | 65 | 138 | 2.6 | 6.1 | 0.00 | 0.05 | 0.00 | 67 | 1025.5 |
| 20260901145555 | 65 | 88 | 3.5 | 6.1 | 0.00 | 0.05 | 0.00 | 67 | 1025.5 |
| 20260901145103 | 65 | 130 | 3.5 | 5.2 | 0.00 | 0.05 | 0.00 | 64 | 1025.4 |
| 20260901144554 | 65 | 94 | 2.6 | 5.2 | 0.00 | 0.05 | 0.00 | 65 | 1025.4 |
| 20260901144101 | 64 | 93 | 0.9 | 4.3 | 0.00 | 0.05 | 0.00 | 65 | 1025.4 |
| 20260901143554 | 63 | 33 | 1.7 | 3.5 | 0.00 | 0.05 | 0.00 | 67 | 1025.5 |
| 20260901143046 | 63 | 32 | 1.7 | 3.5 | 0.00 | 0.05 | 0.00 | 67 | 1025.5 |
| 20260901142555 | 63 | 46 | 1.7 | 4.3 | 0.00 | 0.05 | 0.00 | 68 | 1025.4 |
| 20260901142047 | 62 | 63 | 1.7 | 3.5 | 0.00 | 0.05 | 0.00 | 69 | 1025.4 |
| 20260901141554 | 62 | 84 | 1.7 | 3.5 | 0.00 | 0.05 | 0.00 | 71 | 1025.6 |
| 20260901141105 | 61 | 105 | 0.9 | 3.5 | 0.00 | 0.05 | 0.00 | 72 | 1025.5 |
| 20260901140505 | 61 | 49 | 0.9 | 4.3 | 0.00 | 0.05 | 0.00 | 73 | 1025.4 |
| 20260901140011 | 60 | 80 | 0.9 | 5.2 | 0.00 | 0.05 | 0.00 | 74 | 1025.5 |
| 20260901135530 | 59 | 111 | 0.9 | 3.5 | 0.00 | 0.05 | 0.00 | 75 | 1025.5 |
| 20260901135043 | 59 | 98 | 0.0 | 3.5 | 0.00 | 0.05 | 0.00 | 77 | 1025.5 |
| 20260901134552 | 58 | 74 | 0.9 | 3.5 | 0.00 | 0.05 | 0.00 | 77 | 1025.5 |
| 20260901134059 | 58 | 57 | 0.9 | 3.5 | 0.00 | 0.05 | 0.00 | 78 | 1025.4 |
| 20260901133513 | 57 | 46 | 0.9 | 4.3 | 0.00 | 0.05 | 0.00 | 80 | 1025.3 |
| 20260901133027 | 57 | 53 | 1.7 | 4.3 | 0.00 | 0.05 | 0.00 | 81 | 1025.3 |
| 20260901132537 | 56 | 38 | 1.7 | 4.3 | 0.00 | 0.05 | 0.00 | 82 | 1025.2 |
| 20260901132012 | 56 | 40 | 0.9 | 3.5 | 0.00 | 0.05 | 0.00 | 84 | 1025.1 |
| 20260901131531 | 55 | 82 | 1.7 | 3.5 | 0.00 | 0.05 | 0.00 | 84 | 1025.1 |
| 20260901131049 | 55 | 77 | 1.7 | 4.3 | 0.00 | 0.05 | 0.00 | 85 | 1025.1 |
| 20260901130559 | 55 | 94 | 1.7 | 4.3 | 0.00 | 0.05 | 0.00 | 85 | 1025.1 |
| 20260901130502 | 55 | 85 | 1.7 | 4.3 | 0.00 | 0.05 | 0.00 | 84 | 1025.1 |
| 20260901130015 | 55 | 77 | 2.6 | 4.3 | 0.00 | 0.05 | 0.00 | 84 | 1025.2 |
| 20260901125529 | 55 | 77 | 2.6 | 4.3 | 0.00 | 0.05 | 0.00 | 84 | 1025.1 |
| 20260901125052 | 55 | 75 | 1.7 | 5.2 | 0.00 | 0.05 | 0.00 | 84 | 1025.0 |
| 20260901124502 | 56 | 111 | 2.6 | 5.2 | 0.00 | 0.05 | 0.00 | 83 | 1024.9 |
| 20260901124014 | 56 | 119 | 1.7 | 3.5 | 0.00 | 0.05 | 0.00 | 83 | 1024.8 |
| 20260901123525 | 56 | 103 | 1.7 | 5.2 | 0.00 | 0.05 | 0.00 | 82 | 1024.9 |
| 20260901123046 | 56 | 102 | 1.7 | 5.2 | 0.00 | 0.05 | 0.00 | 82 | 1024.8 |
| 20260901122503 | 56 | 105 | 2.6 | 5.2 | 0.00 | 0.05 | 0.00 | 81 | 1024.7 |
| 20260901122017 | 56 | 74 | 2.6 | 8.7 | 0.00 | 0.05 | 0.00 | 81 | 1024.7 |
| 20260901121540 | 56 | 63 | 3.5 | 8.7 | 0.00 | 0.05 | 0.00 | 82 | 1024.7 |
| 20260901121052 | 56 | 81 | 2.6 | 5.2 | 0.00 | 0.05 | 0.00 | 82 | 1024.7 |
| 20260901120507 | 56 | 85 | 2.6 | 7.0 | 0.00 | 0.05 | 0.00 | 83 | 1024.7 |
| 20260901120019 | 56 | 52 | 2.6 | 7.0 | 0.00 | 0.05 | 0.00 | 83 | 1024.7 |
| 20260901115537 | 55 | 47 | 2.6 | 4.3 | 0.00 | 0.05 | 0.00 | 85 | 1024.8 |
| 20260901115051 | 55 | 67 | 2.6 | 4.3 | 0.00 | 0.05 | 0.00 | 86 | 1024.7 |
| 20260901114558 | 55 | 38 | 1.7 | 2.6 | 0.00 | 0.05 | 0.00 | 86 | 1024.8 |
| 20260901114009 | 55 | 40 | 1.7 | 4.3 | 0.00 | 0.05 | 0.00 | 86 | 1024.7 |
| 20260901113517 | 56 | 38 | 1.7 | 4.3 | 0.00 | 0.05 | 0.00 | 86 | 1024.7 |
| 20260901113028 | 56 | 69 | 0.9 | 3.5 | 0.00 | 0.05 | 0.00 | 86 | 1024.7 |
| 20260901112544 | 56 | 93 | 0.9 | 2.6 | 0.00 | 0.05 | 0.00 | 87 | 1024.7 |
| 20260901112056 | 56 | 79 | 0.9 | 3.5 | 0.00 | 0.05 | 0.00 | 87 | 1024.6 |
| 20260901111511 | 56 | 98 | 1.7 | 3.5 | 0.00 | 0.05 | 0.00 | 87 | 1024.7 |
| 20260901111026 | 56 | 101 | 0.9 | 2.6 | 0.00 | 0.05 | 0.00 | 86 | 1024.5 |
| 20260901110544 | 56 | 101 | 0.9 | 2.6 | 0.00 | 0.05 | 0.00 | 86 | 1024.6 |
| 20260901110055 | 56 | 101 | 1.7 | 2.6 | 0.00 | 0.05 | 0.00 | 86 | 1024.5 |
| 20260901105508 | 56 | 83 | 1.7 | 3.5 | 0.00 | 0.05 | 0.00 | 86 | 1024.5 |
| 20260901105025 | 56 | 81 | 1.7 | 3.5 | 0.00 | 0.05 | 0.00 | 86 | 1024.6 |
| 20260901104607 | 56 | 101 | 1.7 | 2.6 | 0.00 | 0.05 | 0.00 | 86 | 1024.7 |
| 20260901104501 | 56 | 101 | 1.7 | 2.6 | 0.00 | 0.05 | 0.00 | 86 | 1024.6 |
| 20260901104056 | 56 | 82 | 1.7 | 2.6 | 0.00 | 0.05 | 0.00 | 86 | 1024.6 |
| 20260901103604 | 56 | 82 | 0.9 | 1.7 | 0.00 | 0.05 | 0.00 | 86 | 1024.7 |
| 20260901103007 | 57 | 82 | 0.9 | 2.6 | 0.00 | 0.05 | 0.00 | 86 | 1024.7 |
| 20260901102604 | 57 | 82 | 0.9 | 2.6 | 0.00 | 0.05 | 0.00 | 86 | 1024.7 |
| 20260901102006 | 57 | 82 | 0.9 | 2.6 | 0.00 | 0.05 | 0.00 | 86 | 1024.6 |
| 20260901101612 | 57 | 82 | 1.7 | 2.6 | 0.00 | 0.05 | 0.00 | 86 | 1024.6 |
| 20260901101004 | 57 | 96 | 0.0 | 2.6 | 0.00 | 0.05 | 0.00 | 86 | 1024.6 |
| 20260901100511 | 57 | 96 | 0.9 | 2.6 | 0.00 | 0.05 | 0.00 | 86 | 1024.7 |
| 20260901100101 | 57 | 96 | 0.9 | 2.6 | 0.00 | 0.05 | 0.00 | 86 | 1024.6 |
| 20260901095553 | 57 | 96 | 1.7 | 2.6 | 0.00 | 0.05 | 0.00 | 85 | 1024.6 |
| 20260901095043 | 57 | 61 | 0.9 | 1.7 | 0.00 | 0.05 | 0.00 | 85 | 1024.7 |
| 20260901094553 | 57 | 61 | 0.9 | 1.7 | 0.00 | 0.05 | 0.00 | 85 | 1024.7 |
| 20260901094059 | 57 | 61 | 0.9 | 1.7 | 0.00 | 0.05 | 0.00 | 84 | 1024.7 |
| 20260901093502 | 57 | 61 | 0.9 | 1.7 | 0.00 | 0.05 | 0.00 | 84 | 1024.7 |
| 20260901093100 | 57 | 61 | 0.0 | 1.7 | 0.00 | 0.05 | 0.00 | 83 | 1024.6 |
| 20260901092503 | 58 | 61 | 0.0 | 1.7 | 0.00 | 0.05 | 0.00 | 83 | 1024.6 |
| 20260901092101 | 57 | 61 | 0.0 | 1.7 | 0.00 | 0.05 | 0.00 | 83 | 1024.7 |
| 20260901091555 | 58 | 61 | 0.9 | 1.7 | 0.00 | 0.05 | 0.00 | 83 | 1024.8 |
| 20260901091057 | 58 | 61 | 0.0 | 2.6 | 0.00 | 0.05 | 0.00 | 82 | 1024.8 |
| 20260901090551 | 58 | 61 | 0.0 | 2.6 | 0.00 | 0.05 | 0.00 | 83 | 1024.8 |
| 20260901090058 | 58 | 42 | 1.7 | 3.5 | 0.00 | 0.05 | 0.00 | 83 | 1024.8 |
| 20260901085501 | 58 | 30 | 1.7 | 3.5 | 0.00 | 0.06 | 0.00 | 83 | 1024.8 |
| 20260901085011 | 57 | 49 | 1.7 | 3.5 | 0.00 | 0.06 | 0.00 | 84 | 1024.8 |
| 20260901084501 | 57 | 34 | 1.7 | 3.5 | 0.00 | 0.06 | 0.00 | 84 | 1024.8 |
| 20260901084011 | 57 | 5 | 0.9 | 1.7 | 0.00 | 0.06 | 0.00 | 85 | 1024.9 |
| 20260901083604 | 58 | 5 | 0.9 | 1.7 | 0.00 | 0.06 | 0.00 | 85 | 1025.0 |
| 20260901083054 | 58 | 5 | 0.9 | 1.7 | 0.00 | 0.06 | 0.00 | 85 | 1025.0 |
| 20260901082602 | 58 | 5 | 0.9 | 1.7 | 0.00 | 0.06 | 0.00 | 85 | 1025.0 |
| 20260901082054 | 58 | 5 | 0.9 | 1.7 | 0.00 | 0.06 | 0.00 | 85 | 1025.0 |
| 20260901081550 | 58 | 348 | 0.9 | 1.7 | 0.00 | 0.06 | 0.00 | 85 | 1025.1 |
| 20260901081052 | 58 | 348 | 0.0 | 1.7 | 0.00 | 0.06 | 0.00 | 86 | 1025.1 |
| 20260901080543 | 58 | 130 | 0.0 | 1.7 | 0.00 | 0.06 | 0.00 | 86 | 1025.2 |
| 20260901080059 | 58 | 350 | 0.0 | 2.6 | 0.00 | 0.06 | 0.00 | 86 | 1025.1 |
| 20260901075600 | 58 | 350 | 0.0 | 2.6 | 0.00 | 0.06 | 0.00 | 86 | 1025.2 |
| 20260901075002 | 58 | 329 | 0.0 | 1.7 | 0.00 | 0.06 | 0.00 | 86 | 1025.3 |
| 20260901074614 | 58 | 329 | 0.9 | 1.7 | 0.00 | 0.06 | 0.00 | 86 | 1025.3 |
| 20260901074001 | 58 | 329 | 0.9 | 2.6 | 0.00 | 0.06 | 0.00 | 87 | 1025.2 |
| 20260901073558 | 58 | 329 | 0.9 | 2.6 | 0.00 | 0.06 | 0.00 | 86 | 1025.2 |
| 20260901073001 | 58 | 300 | 0.0 | 1.7 | 0.00 | 0.06 | 0.00 | 85 | 1025.3 |
| 20260901072559 | 58 | 300 | 0.0 | 1.7 | 0.00 | 0.06 | 0.00 | 85 | 1025.3 |
| 20260901072002 | 59 | 300 | 0.0 | 0.0 | 0.00 | 0.06 | 0.00 | 84 | 1025.3 |
| 20260901071510 | 59 | 300 | 0.0 | 0.0 | 0.00 | 0.06 | 0.00 | 84 | 1025.2 |
| 20260901071003 | 59 | 300 | 0.0 | 1.7 | 0.00 | 0.06 | 0.00 | 84 | 1025.2 |
| 20260901070508 | 59 | 300 | 0.0 | 1.7 | 0.00 | 0.06 | 0.00 | 84 | 1025.1 |
| 20260901070112 | 59 | 300 | 0.0 | 2.6 | 0.00 | 0.06 | 0.00 | 84 | 1025.1 |
| 20260901065554 | 59 | 51 | 0.9 | 2.6 | 0.00 | 0.06 | 0.00 | 83 | 1025.1 |
| 20260901065101 | 59 | 65 | 0.0 | 2.6 | 0.00 | 0.06 | 0.00 | 84 | 1024.9 |
| 20260901064554 | 59 | 67 | 0.9 | 3.5 | 0.00 | 0.06 | 0.00 | 83 | 1024.9 |
| 20260901064045 | 59 | 76 | 1.7 | 2.6 | 0.00 | 0.06 | 0.00 | 83 | 1024.9 |
| 20260901063552 | 59 | 73 | 0.0 | 0.9 | 0.00 | 0.06 | 0.00 | 83 | 1025.0 |
| 20260901063046 | 59 | 73 | 0.0 | 2.6 | 0.00 | 0.06 | 0.00 | 82 | 1025.1 |
| 20260901062551 | 59 | 73 | 0.0 | 3.5 | 0.00 | 0.06 | 0.00 | 82 | 1025.0 |
| 20260901062100 | 59 | 73 | 0.9 | 3.5 | 0.00 | 0.06 | 0.00 | 82 | 1025.0 |
| 20260901061503 | 59 | 65 | 0.9 | 2.6 | 0.00 | 0.06 | 0.00 | 81 | 1025.1 |
| 20260901061058 | 59 | 38 | 0.9 | 2.6 | 0.00 | 0.06 | 0.00 | 82 | 1025.0 |
| 20260901060605 | 59 | 38 | 0.9 | 2.6 | 0.00 | 0.06 | 0.00 | 82 | 1025.0 |
| 20260901060053 | 59 | 38 | 0.9 | 1.7 | 0.00 | 0.06 | 0.00 | 82 | 1025.0 |
| 20260901055600 | 60 | 38 | 0.9 | 1.7 | 0.00 | 0.06 | 0.06 | 83 | 1025.0 |
| 20260901055056 | 60 | 38 | 0.0 | 0.0 | 0.00 | 0.06 | 0.06 | 83 | 1025.1 |
| 20260901054606 | 60 | 38 | 0.0 | 1.7 | 0.00 | 0.06 | 0.06 | 82 | 1025.0 |
| 20260901054005 | 60 | 38 | 0.0 | 2.6 | 0.00 | 0.06 | 0.06 | 83 | 1024.9 |
| 20260901053559 | 60 | 38 | 0.0 | 3.5 | 0.00 | 0.06 | 0.06 | 83 | 1024.9 |
| 20260901053003 | 60 | 33 | 1.7 | 3.5 | 0.00 | 0.06 | 0.06 | 83 | 1024.8 |
| 20260901052559 | 60 | 21 | 2.6 | 3.5 | 0.00 | 0.06 | 0.06 | 84 | 1024.8 |
| 20260901052002 | 60 | 47 | 1.7 | 2.6 | 0.00 | 0.06 | 0.06 | 84 | 1024.8 |
| 20260901051614 | 60 | 98 | 0.9 | 1.7 | 0.00 | 0.06 | 0.06 | 84 | 1024.8 |
| 20260901051051 | 60 | 98 | 0.9 | 1.7 | 0.00 | 0.06 | 0.06 | 84 | 1024.8 |
| 20260901050558 | 60 | 98 | 0.0 | 0.9 | 0.00 | 0.06 | 0.06 | 85 | 1024.9 |
| 20260901050002 | 60 | 98 | 0.0 | 0.9 | 0.00 | 0.06 | 0.06 | 85 | 1025.0 |
| 20260901045511 | 61 | 98 | 0.0 | 1.7 | 0.00 | 0.06 | 0.06 | 85 | 1025.0 |
| 20260901045019 | 61 | 98 | 0.0 | 1.7 | 0.00 | 0.06 | 0.06 | 85 | 1025.0 |
| 20260901044527 | 61 | 98 | 0.0 | 1.7 | 0.00 | 0.06 | 0.06 | 84 | 1025.0 |
| 20260901044032 | 61 | 98 | 0.0 | 1.7 | 0.00 | 0.06 | 0.06 | 84 | 1025.0 |
| 20260901043539 | 61 | 98 | 0.0 | 1.7 | 0.00 | 0.06 | 0.06 | 84 | 1025.0 |
| 20260901043050 | 61 | 98 | 0.0 | 1.7 | 0.00 | 0.06 | 0.06 | 83 | 1024.8 |
| 20260901042557 | 61 | 98 | 0.9 | 1.7 | 0.00 | 0.06 | 0.06 | 84 | 1024.8 |
| 20260901042046 | 61 | 98 | 0.9 | 2.6 | 0.00 | 0.06 | 0.06 | 83 | 1025.0 |
| 20260901041608 | 61 | 98 | 0.9 | 1.7 | 0.00 | 0.06 | 0.06 | 84 | 1024.9 |
| 20260901041050 | 61 | 98 | 0.0 | 1.7 | 0.00 | 0.06 | 0.06 | 84 | 1024.9 |
| 20260901040537 | 61 | 98 | 0.0 | 0.9 | 0.00 | 0.06 | 0.06 | 84 | 1025.1 |
| 20260901040044 | 61 | 98 | 0.0 | 0.9 | 0.00 | 0.06 | 0.06 | 84 | 1025.0 |
| 20260901035555 | 61 | 98 | 0.0 | 1.7 | 0.00 | 0.06 | 0.06 | 84 | 1025.1 |
| 20260901035059 | 61 | 98 | 0.9 | 1.7 | 0.00 | 0.06 | 0.06 | 84 | 1025.1 |
| 20260901034553 | 61 | 98 | 0.9 | 2.6 | 0.00 | 0.06 | 0.06 | 84 | 1024.9 |
| 20260901034101 | 61 | 98 | 1.7 | 2.6 | 0.00 | 0.06 | 0.06 | 84 | 1024.7 |
| 20260901033553 | 61 | 127 | 0.0 | 1.7 | 0.00 | 0.06 | 0.06 | 84 | 1025.0 |
| 20260901033046 | 61 | 127 | 0.9 | 1.7 | 0.00 | 0.06 | 0.06 | 85 | 1024.8 |
| 20260901032557 | 61 | 127 | 0.0 | 0.9 | 0.00 | 0.06 | 0.06 | 84 | 1025.0 |
| 20260901032100 | 61 | 127 | 0.0 | 1.7 | 0.00 | 0.06 | 0.06 | 84 | 1025.1 |
| 20260901031504 | 61 | 127 | 0.0 | 1.7 | 0.00 | 0.06 | 0.06 | 84 | 1024.9 |
| 20260901031101 | 61 | 127 | 0.0 | 1.7 | 0.00 | 0.06 | 0.06 | 85 | 1024.9 |
| 20260901030505 | 61 | 127 | 0.9 | 1.7 | 0.00 | 0.06 | 0.06 | 85 | 1024.8 |
| 20260901030105 | 61 | 127 | 0.9 | 2.6 | 0.00 | 0.06 | 0.06 | 84 | 1024.8 |
| 20260901025552 | 61 | 127 | 0.9 | 2.6 | 0.00 | 0.06 | 0.06 | 84 | 1024.7 |
| 20260901025100 | 61 | 105 | 0.9 | 2.6 | 0.00 | 0.06 | 0.06 | 84 | 1024.7 |
| 20260901024553 | 62 | 113 | 0.9 | 2.6 | 0.00 | 0.06 | 0.06 | 84 | 1024.5 |
| 20260901024100 | 62 | 101 | 0.9 | 1.7 | 0.00 | 0.06 | 0.06 | 83 | 1024.5 |
| 20260901023553 | 62 | 101 | 0.9 | 3.5 | 0.00 | 0.06 | 0.06 | 83 | 1024.4 |
| 20260901023045 | 62 | 101 | 0.9 | 3.5 | 0.00 | 0.06 | 0.06 | 83 | 1024.3 |
| 20260901022551 | 62 | 109 | 0.9 | 5.2 | 0.00 | 0.06 | 0.06 | 82 | 1024.2 |
| 20260901022059 | 62 | 105 | 2.6 | 5.2 | 0.00 | 0.06 | 0.06 | 82 | 1024.1 |
| 20260901021503 | 62 | 87 | 1.7 | 4.3 | 0.00 | 0.06 | 0.06 | 82 | 1024.1 |
| 20260901021057 | 62 | 84 | 1.7 | 3.5 | 0.00 | 0.06 | 0.06 | 82 | 1024.3 |
| 20260901020605 | 62 | 44 | 1.7 | 3.5 | 0.00 | 0.06 | 0.06 | 82 | 1024.2 |
| 20260901020042 | 63 | 82 | 1.7 | 3.5 | 0.00 | 0.06 | 0.06 | 82 | 1024.1 |
| 20260901015551 | 63 | 65 | 1.7 | 3.5 | 0.00 | 0.06 | 0.06 | 82 | 1024.2 |
| 20260901015059 | 63 | 107 | 0.9 | 3.5 | 0.00 | 0.06 | 0.06 | 81 | 1024.3 |
| 20260901014558 | 63 | 80 | 1.7 | 3.5 | 0.00 | 0.06 | 0.06 | 81 | 1024.2 |
| 20260901014059 | 63 | 85 | 0.9 | 3.5 | 0.00 | 0.06 | 0.06 | 80 | 1024.4 |
| 20260901013551 | 63 | 114 | 0.9 | 4.3 | 0.00 | 0.06 | 0.06 | 80 | 1024.5 |
| 20260901013044 | 64 | 105 | 1.7 | 4.3 | 0.00 | 0.06 | 0.06 | 79 | 1024.3 |
| 20260901012552 | 64 | 77 | 0.9 | 6.1 | 0.00 | 0.06 | 0.06 | 79 | 1024.3 |
| 20260901012059 | 64 | 99 | 2.6 | 7.0 | 0.00 | 0.06 | 0.06 | 79 | 1024.4 |
| 20260901011503 | 64 | 130 | 3.5 | 7.0 | 0.00 | 0.06 | 0.06 | 78 | 1024.4 |
| 20260901011101 | 64 | 89 | 2.6 | 6.1 | 0.00 | 0.06 | 0.06 | 78 | 1024.4 |
| 20260901010503 | 65 | 80 | 1.7 | 5.2 | 0.00 | 0.06 | 0.06 | 77 | 1024.4 |
| 20260901010059 | 65 | 103 | 1.7 | 5.2 | 0.00 | 0.06 | 0.06 | 77 | 1024.5 |
| 20260901005504 | 65 | 102 | 2.6 | 4.3 | 0.00 | 0.09 | 0.06 | 76 | 1024.4 |
| 20260901005011 | 65 | 105 | 1.7 | 4.3 | 0.00 | 0.09 | 0.06 | 76 | 1024.3 |
| 20260901004603 | 65 | 78 | 1.7 | 4.3 | 0.00 | 0.09 | 0.06 | 76 | 1024.2 |
| 20260901004007 | 65 | 72 | 0.9 | 2.6 | 0.00 | 0.09 | 0.06 | 77 | 1024.5 |
| 20260901003604 | 65 | 111 | 1.7 | 2.6 | 0.00 | 0.09 | 0.06 | 75 | 1024.6 |
| 20260901003008 | 65 | 111 | 0.9 | 2.6 | 0.00 | 0.09 | 0.06 | 75 | 1024.7 |
| 20260901002603 | 65 | 93 | 0.9 | 3.5 | 0.00 | 0.09 | 0.06 | 76 | 1024.7 |
| 20260901002053 | 65 | 64 | 1.7 | 3.5 | 0.00 | 0.09 | 0.06 | 76 | 1024.6 |
| 20260901001609 | 65 | 84 | 1.7 | 4.3 | 0.00 | 0.09 | 0.06 | 75 | 1024.6 |
| 20260901001053 | 66 | 89 | 0.9 | 4.3 | 0.00 | 0.09 | 0.06 | 76 | 1024.8 |
| 20260901000601 | 66 | 88 | 2.6 | 4.3 | 0.00 | 0.09 | 0.06 | 76 | 1025.0 |
| 20260831235547 | 66 | 101 | 1.7 | 3.5 | 0.00 | 0.32 | 0.06 | 77 | 1025.2 |
| 20260831235052 | 66 | 50 | 0.0 | 1.7 | 0.00 | 0.32 | 0.06 | 70 | 1025.2 |
| 20260831234626 | 66 | 50 | 0.9 | 4.3 | 0.00 | 0.32 | 0.06 | 71 | 1025.2 |
| 20260831234004 | 66 | 34 | 0.9 | 4.3 | 0.00 | 0.32 | 0.06 | 72 | 1025.2 |
| 20260831233602 | 67 | 22 | 1.7 | 4.3 | 0.00 | 0.32 | 0.06 | 72 | 1025.1 |
| 20260831233004 | 67 | 38 | 0.0 | 4.3 | 0.00 | 0.32 | 0.06 | 72 | 1025.2 |
| 20260831232601 | 67 | 38 | 1.7 | 4.3 | 0.00 | 0.32 | 0.06 | 72 | 1025.2 |
| 20260831232004 | 67 | 86 | 0.9 | 5.2 | 0.00 | 0.32 | 0.06 | 70 | 1025.2 |
| 20260831231512 | 67 | 117 | 1.7 | 7.0 | 0.00 | 0.32 | 0.06 | 71 | 1025.2 |
| 20260831231105 | 66 | 138 | 1.7 | 7.0 | 0.00 | 0.32 | 0.06 | 74 | 1025.1 |
| 20260831230509 | 66 | 46 | 1.7 | 5.2 | 0.00 | 0.32 | 0.06 | 74 | 1025.1 |
| 20260831230104 | 66 | 92 | 2.6 | 5.2 | 0.00 | 0.32 | 0.06 | 74 | 1025.1 |
| 20260831225554 | 66 | 78 | 3.5 | 5.2 | 0.00 | 0.32 | 0.06 | 74 | 1025.2 |
| 20260831225103 | 66 | 80 | 1.7 | 4.3 | 0.00 | 0.32 | 0.06 | 74 | 1025.1 |
| 20260831224554 | 66 | 136 | 2.6 | 5.2 | 0.00 | 0.32 | 0.06 | 76 | 1025.3 |
| 20260831224105 | 66 | 123 | 1.7 | 3.5 | 0.00 | 0.32 | 0.06 | 76 | 1025.4 |
| 20260831223555 | 66 | 86 | 1.7 | 5.2 | 0.00 | 0.32 | 0.06 | 74 | 1025.4 |
| 20260831223045 | 66 | 76 | 1.7 | 5.2 | 0.00 | 0.32 | 0.06 | 74 | 1025.4 |
| 20260831222553 | 66 | 90 | 0.9 | 4.3 | 0.00 | 0.32 | 0.06 | 75 | 1025.4 |
| 20260831222100 | 66 | 74 | 0.9 | 5.2 | 0.00 | 0.32 | 0.06 | 74 | 1025.4 |
| 20260831221504 | 66 | 105 | 2.6 | 5.2 | 0.00 | 0.32 | 0.06 | 75 | 1025.5 |
| 20260831221058 | 66 | 70 | 0.9 | 2.6 | 0.00 | 0.32 | 0.06 | 75 | 1025.5 |
| 20260831220605 | 66 | 62 | 0.0 | 1.7 | 0.00 | 0.32 | 0.06 | 74 | 1025.7 |
| 20260831220042 | 65 | 62 | 0.0 | 1.7 | 0.00 | 0.32 | 0.06 | 75 | 1025.7 |
| 20260831215558 | 65 | 355 | 0.0 | 3.5 | 0.00 | 0.32 | 0.06 | 77 | 1025.8 |
| 20260831215015 | 65 | 347 | 0.9 | 4.3 | 0.00 | 0.32 | 0.06 | 76 | 1025.8 |
| 20260831214530 | 65 | 336 | 1.7 | 4.3 | 0.00 | 0.32 | 0.06 | 77 | 1025.8 |
| 20260831214047 | 65 | 346 | 2.6 | 4.3 | 0.00 | 0.32 | 0.06 | 76 | 1025.8 |
| 20260831213506 | 65 | 317 | 2.6 | 7.0 | 0.00 | 0.32 | 0.06 | 77 | 1026.0 |